TimeCDT,TemperatureF,Dew PointF,Humidity,Sea Level PressureIn,VisibilityMPH,Wind Direction,Wind SpeedMPH,Gust SpeedMPH,PrecipitationIn,Events,Conditions,WindDirDegrees,DateUTC
12:13 AM,64.4,62.6,94,29.98,10.0,South,8.1,-,N/A,,Scattered Clouds,190,2013-07-26 05:13:00
12:33 AM,64.4,62.6,94,29.98,10.0,South,6.9,-,N/A,,Scattered Clouds,190,2013-07-26 05:33:00
12:53 AM,64.4,62.6,94,29.97,10.0,SSW,4.6,-,N/A,,Scattered Clouds,200,2013-07-26 05:53:00
1:13 AM,64.4,62.6,94,29.97,10.0,SSW,5.8,-,N/A,,Scattered Clouds,200,2013-07-26 06:13:00
1:33 AM,64.4,62.6,94,29.95,10.0,SSW,4.6,-,N/A,,Scattered Clouds,210,2013-07-26 06:33:00
1:53 AM,64.4,62.6,94,29.95,10.0,WSW,5.8,-,N/A,,Scattered Clouds,240,2013-07-26 06:53:00
2:13 AM,64.4,62.6,94,29.95,10.0,SW,6.9,-,N/A,,Mostly Cloudy,220,2013-07-26 07:13:00
2:33 AM,64.4,62.6,94,29.94,7.0,WSW,8.1,-,N/A,,Overcast,240,2013-07-26 07:33:00
2:53 AM,64.4,62.6,94,29.93,5.0,SW,5.8,-,N/A,,Overcast,230,2013-07-26 07:53:00
3:13 AM,64.4,64.4,100,29.93,5.0,WSW,6.9,-,N/A,,Overcast,240,2013-07-26 08:13:00
3:33 AM,64.4,64.4,100,29.94,3.0,West,4.6,-,N/A,,Overcast,260,2013-07-26 08:33:00
3:53 AM,64.4,64.4,100,29.94,2.5,WSW,3.5,-,N/A,,Overcast,240,2013-07-26 08:53:00
4:13 AM,64.4,64.4,100,29.94,1.8,West,4.6,-,N/A,,Overcast,260,2013-07-26 09:13:00
4:33 AM,64.4,64.4,100,29.94,4.0,WSW,4.6,-,N/A,,Overcast,250,2013-07-26 09:33:00
4:53 AM,64.4,64.4,100,29.94,5.0,West,4.6,-,N/A,,Overcast,270,2013-07-26 09:53:00
5:13 AM,64.4,64.4,100,29.93,5.0,West,4.6,-,N/A,,Overcast,280,2013-07-26 10:13:00
5:33 AM,64.4,62.6,94,29.93,5.0,WNW,6.9,-,N/A,,Overcast,300,2013-07-26 10:33:00
5:53 AM,64.4,62.6,94,29.94,5.0,WNW,8.1,-,N/A,,Overcast,290,2013-07-26 10:53:00
6:13 AM,64.4,62.6,94,29.95,5.0,NW,6.9,-,N/A,,Mostly Cloudy,310,2013-07-26 11:13:00
6:33 AM,64.4,62.6,94,29.95,5.0,WNW,6.9,-,N/A,,Scattered Clouds,300,2013-07-26 11:33:00
6:53 AM,64.4,60.8,88,29.96,10.0,NW,4.6,-,N/A,,Clear,310,2013-07-26 11:53:00
7:13 AM,64.4,60.8,88,29.97,10.0,WNW,6.9,-,N/A,,Clear,300,2013-07-26 12:13:00
7:33 AM,64.4,59.0,83,29.98,10.0,WNW,5.8,-,N/A,,Scattered Clouds,300,2013-07-26 12:33:00
7:53 AM,64.4,57.2,77,29.98,10.0,WNW,6.9,-,N/A,,Mostly Cloudy,300,2013-07-26 12:53:00
8:13 AM,64.4,57.2,77,29.98,10.0,WNW,6.9,-,N/A,,Scattered Clouds,290,2013-07-26 13:13:00
8:33 AM,64.4,57.2,77,29.99,10.0,NW,8.1,-,N/A,,Scattered Clouds,310,2013-07-26 13:33:00
8:53 AM,64.4,57.2,77,29.99,10.0,NW,9.2,17.3,N/A,,Scattered Clouds,310,2013-07-26 13:53:00
9:13 AM,64.4,55.4,73,30.00,10.0,WNW,10.4,18.4,N/A,,Clear,300,2013-07-26 14:13:00
9:33 AM,64.4,55.4,73,30.00,10.0,NW,9.2,17.3,N/A,,Clear,320,2013-07-26 14:33:00
9:53 AM,64.4,55.4,73,30.00,10.0,NW,10.4,16.1,N/A,,Scattered Clouds,310,2013-07-26 14:53:00
10:13 AM,66.2,55.4,68,30.00,10.0,WNW,9.2,18.4,N/A,,Scattered Clouds,300,2013-07-26 15:13:00
10:33 AM,64.4,53.6,68,30.01,10.0,NW,10.4,20.7,N/A,,Scattered Clouds,310,2013-07-26 15:33:00
10:53 AM,64.4,53.6,68,30.01,10.0,NW,12.7,18.4,N/A,,Mostly Cloudy,310,2013-07-26 15:53:00
11:13 AM,64.4,53.6,68,30.02,10.0,NW,11.5,21.9,N/A,,Mostly Cloudy,310,2013-07-26 16:13:00
11:33 AM,62.6,51.8,68,30.03,10.0,NW,12.7,23.0,N/A,,Overcast,310,2013-07-26 16:33:00
11:53 AM,62.6,53.6,72,30.03,10.0,NW,10.4,18.4,N/A,,Overcast,310,2013-07-26 16:53:00
12:13 PM,62.6,53.6,72,30.03,10.0,WNW,6.9,21.9,N/A,,Overcast,300,2013-07-26 17:13:00
12:33 PM,62.6,53.6,72,30.03,10.0,NW,11.5,21.9,N/A,,Overcast,310,2013-07-26 17:33:00
12:53 PM,64.4,53.6,68,30.03,10.0,WNW,11.5,19.6,N/A,,Overcast,300,2013-07-26 17:53:00
1:14 PM,66.2,55.4,68,30.02,10.0,WNW,6.9,16.1,N/A,,Mostly Cloudy,300,2013-07-26 18:14:00
1:33 PM,64.4,53.6,68,30.02,10.0,WNW,8.1,16.1,N/A,,Mostly Cloudy,300,2013-07-26 18:33:00
1:53 PM,66.2,55.4,68,30.01,10.0,WNW,9.2,19.6,N/A,,Mostly Cloudy,300,2013-07-26 18:53:00
2:13 PM,66.2,53.6,64,30.01,10.0,NNW,10.4,18.4,N/A,,Mostly Cloudy,330,2013-07-26 19:13:00
2:33 PM,66.2,57.2,73,30.01,10.0,NW,9.2,-,N/A,,Mostly Cloudy,310,2013-07-26 19:33:00
2:53 PM,69.8,57.2,64,30.00,10.0,NNW,11.5,20.7,N/A,,Scattered Clouds,330,2013-07-26 19:53:00
3:13 PM,66.2,55.4,68,30.01,10.0,WNW,12.7,20.7,N/A,,Mostly Cloudy,300,2013-07-26 20:13:00
3:33 PM,69.8,55.4,60,30.00,10.0,NW,11.5,19.6,N/A,,Scattered Clouds,320,2013-07-26 20:33:00
3:52 PM,71.6,53.6,53,30.00,10.0,NNW,12.7,19.6,N/A,,Clear,330,2013-07-26 20:52:00
4:13 PM,69.8,53.6,56,30.01,10.0,NNW,13.8,25.3,N/A,,Mostly Cloudy,330,2013-07-26 21:13:00
4:33 PM,68.0,53.6,60,30.02,10.0,NW,12.7,25.3,N/A,,Mostly Cloudy,320,2013-07-26 21:33:00
4:52 PM,69.8,51.8,53,30.02,10.0,NW,11.5,16.1,N/A,,Scattered Clouds,310,2013-07-26 21:52:00
5:13 PM,69.8,51.8,53,30.02,10.0,NW,11.5,25.3,N/A,,Scattered Clouds,310,2013-07-26 22:13:00
5:33 PM,66.2,53.6,64,30.03,10.0,NNW,12.7,17.3,N/A,,Mostly Cloudy,330,2013-07-26 22:33:00
5:53 PM,66.2,51.8,60,30.03,10.0,NNW,13.8,23.0,N/A,,Overcast,330,2013-07-26 22:53:00
6:13 PM,66.2,50.0,56,30.03,10.0,NNW,11.5,23.0,N/A,,Mostly Cloudy,330,2013-07-26 23:13:00
6:33 PM,66.2,51.8,60,30.03,10.0,NNW,15.0,20.7,N/A,,Overcast,340,2013-07-26 23:33:00
6:53 PM,66.2,51.8,60,30.03,10.0,North,11.5,25.3,N/A,,Scattered Clouds,350,2013-07-26 23:53:00
7:13 PM,64.4,51.8,64,30.03,10.0,North,15.0,24.2,N/A,,Clear,350,2013-07-27 00:13:00
7:33 PM,64.4,51.8,64,30.04,10.0,North,15.0,25.3,N/A,,Scattered Clouds,360,2013-07-27 00:33:00
7:52 PM,64.4,51.8,64,30.04,10.0,North,13.8,17.3,N/A,,Mostly Cloudy,350,2013-07-27 00:52:00
8:13 PM,62.6,51.8,68,30.04,10.0,NNW,9.2,16.1,N/A,,Scattered Clouds,340,2013-07-27 01:13:00
8:33 PM,62.6,51.8,68,30.05,10.0,NNW,10.4,16.1,N/A,,Scattered Clouds,340,2013-07-27 01:33:00
8:52 PM,62.6,51.8,68,30.05,10.0,NNW,8.1,-,N/A,,Mostly Cloudy,340,2013-07-27 01:52:00
9:13 PM,62.6,51.8,68,30.06,10.0,NNW,6.9,-,N/A,,Overcast,330,2013-07-27 02:13:00
9:33 PM,62.6,51.8,68,30.06,10.0,North,9.2,17.3,N/A,,Overcast,350,2013-07-27 02:33:00
9:53 PM,60.8,51.8,72,30.07,10.0,North,10.4,-,N/A,,Overcast,350,2013-07-27 02:53:00
10:13 PM,60.8,51.8,72,30.08,10.0,NNW,9.2,-,N/A,,Overcast,340,2013-07-27 03:13:00
10:33 PM,60.8,51.8,72,30.08,10.0,North,9.2,17.3,N/A,,Overcast,360,2013-07-27 03:33:00
10:53 PM,59.0,51.8,77,30.08,10.0,North,9.2,19.6,N/A,,Mostly Cloudy,360,2013-07-27 03:53:00
11:13 PM,57.2,51.8,82,30.08,10.0,North,6.9,-,N/A,,Scattered Clouds,360,2013-07-27 04:13:00
11:33 PM,55.4,51.8,88,30.08,10.0,North,4.6,-,N/A,,Clear,350,2013-07-27 04:33:00
11:53 PM,55.4,51.8,88,30.08,10.0,North,4.6,-,N/A,,Scattered Clouds,350,2013-07-27 04:53:00